Flag for Canada Weather past 2 weeks in St. Albert, Alberta, Canada

Now
68 °F

Mild.


Feels Like: 68 °F
Forecast: 47 / 66 °F
Wind: 9 mph from Northwest

Location: Edmonton Municipal

Current Time: Sep 1, 2015 at 4:25:45 PM

Latest Report: Sep 1, 2015 at 3:00 PM


Visibility: N/A

Pressure: 29.66 "Hg (27.48 "Hg at 653m altitude)

Humidity: 28%

Dew point: 34 °F

Location of St. AlbertLocation

Historic Weather in St. Albert — Graph

°F

St. Albert temperature yesterday

Maximum temperature yesterday: 76 °F (at 3:00 PM)
Minimum temperature yesterday: 47 °F (at 6:00 AM)
Average temperature yesterday: 62 °F

Past Weeks' High & Low Weather Summary

 TemperatureHumidityPressure
High83 °F (Aug 28, 5:00 PM)95% (Aug 18, 6:00 AM)30.19 "Hg (Aug 18, 6:00 AM)
Low43 °F (Aug 22, 4:00 AM)20% (Aug 31, 3:00 PM)29.40 "Hg (Aug 29, 9:00 PM)
Average62 °F56%29.84 "Hg
* Reported Aug 17 2:00 PM — Sep 1 2:00 PM, St. Albert, Weather by CustomWeather, © 2015

Note: Actual official high and low records may vary slightly from our data, if they occured in-between our weather recording intervals... More about our weather records

Advertising

St. Albert weather history for previous 24 hours

 ConditionsComfort  
Time TempWeatherWind HumidityBarometerVisibility
2:00 PM
Tue, Sep 1
66 °FMild.12 mph29%29.66 "HgN/A
1:00 PM66 °FMild.10 mph34%29.65 "HgN/A
12:00 PM63 °FMild.13 mph39%29.64 "HgN/A
11:00 AM61 °FRefreshingly cool.12 mph46%29.62 "HgN/A
10:00 AM58 °FRefreshingly cool.7 mph58%29.61 "HgN/A
9:00 AM54 °FCool.9 mph69%29.58 "HgN/A
8:00 AM52 °FCool.10 mph75%29.55 "HgN/A
7:00 AM51 °FCool.13 mph75%29.53 "HgN/A
6:00 AM52 °FCool.7 mph70%29.49 "HgN/A
5:00 AM52 °FCool.5 mph72%29.47 "HgN/A
4:00 AM53 °FCool.2 mph66%29.48 "HgN/A
3:00 AM53 °FCool.5 mph66%29.48 "HgN/A
2:00 AM52 °FCool.1 mph68%29.50 "HgN/A
1:00 AM53 °FCool.2 mph67%29.52 "HgN/A
12:00 AM56 °FRefreshingly cool.5 mph60%29.56 "HgN/A
11:00 PM
Mon, Aug 31
58 °FRefreshingly cool.5 mph54%29.57 "HgN/A
9:00 PM63 °FMild.3 mph40%29.57 "HgN/A
8:00 PM66 °FMild.6 mph33%29.57 "HgN/A
7:00 PM70 °FMild.9 mph31%29.57 "HgN/A
6:00 PM73 °FMild.8 mph24%29.56 "HgN/A
5:00 PM74 °FMild.9 mph23%29.56 "HgN/A
4:00 PM72 °FMild.10 mph24%29.57 "HgN/A
Weather by CustomWeather, © 2015

See weather overviewHow to use our weather pages